Phoenix-Mesa Gateway Airport, AZ

11:48 AM MST on May 29, 2017 (GMT -0700)
Phoenix-Mesa Gateway Airport

Weather History for KIWA - November, 2013

Change the Weather History Date:

Monday, November 11, 2013

  Actual Average Record
Temperature  
Mean Temperature 69 °F -  
Max Temperature 87 °F 73 °F 89 °F (1999)
Min Temperature 51 °F 48 °F 37 °F (2012)
Cooling Degree Days 4    
Growing Degree Days 19 (Base 50)    
Moisture  
Dew Point 35 °F    
Average Humidity 35    
Maximum Humidity 54    
Minimum Humidity 14    
Precipitation  
Precipitation 0.00 in - - ()
Sea Level Pressure  
Sea Level Pressure 30.05 in    
Wind  
Wind Speed 4 mph (East)    
Max Wind Speed 8 mph    
Max Gust Speed -    
Visibility 12 miles    
Events      
Averages and records for this station are not official NWS values.
T = Trace of Precipitation, MM = Missing Value Source: NWS Daily Summary

Daily Weather History Graph

Daily Weather History Graph

Search for Another Location

Airport or City:

Trip Planner

Search our weather history database for the weather conditions in past years. The results will help you decide how hot, cold, wet, or windy it might be!

Date:

Astronomy

Nov. 11, 2013 Rise Set
Actual Time 6:54 AM MST 5:26 PM MST
Civil Twilight 6:28 AM MST 5:52 PM MST
Nautical Twilight 5:58 AM MST 6:22 PM MST
Astronomical Twilight 5:29 AM MST 6:51 PM MST
Moon 1:53 PM MST (11/11) 1:01 AM MST (11/11)
Length of Visible Light 11h 24m
Length of Day
10h 32m
Waxing Gibbous, 67% of the Moon is Illuminated
Nov 11
Waxing Gibbous
Nov 17
Full
Nov 25
Last Quarter
Dec 2
New
Dec 9
First Quarter

Hourly Weather History & Observations

Time (MST) Temp. Dew Point Humidity Pressure Visibility Wind Dir Wind Speed Gust Speed Precip Events Conditions
12:15 AM 57.2 °F 35.6 °F 44% 30.04 in 10.0 mi ESE 4.6 mph - N/A   Clear
12:35 AM 57.2 °F 37.4 °F 48% 30.04 in 10.0 mi SSE 4.6 mph - N/A   Clear
12:55 AM 55.4 °F 37.4 °F 51% 30.04 in 10.0 mi SE 4.6 mph - N/A   Clear
1:15 AM 55.4 °F 35.6 °F 47% 30.04 in 10.0 mi SSE 6.9 mph - N/A   Clear
1:35 AM 53.6 °F 37.4 °F 54% 30.04 in 10.0 mi East 6.9 mph - N/A   Clear
1:55 AM 55.4 °F 32.0 °F 41% 30.05 in 10.0 mi East 6.9 mph - N/A   Clear
2:15 AM 55.4 °F 32.0 °F 41% 30.04 in 10.0 mi East 6.9 mph - N/A   Clear
2:35 AM 57.2 °F 33.8 °F 41% 30.04 in 10.0 mi ESE 6.9 mph - N/A   Clear
2:55 AM 55.4 °F 33.8 °F 44% 30.04 in 10.0 mi East 5.8 mph - N/A   Clear
3:15 AM 53.6 °F 33.8 °F 47% 30.04 in 10.0 mi East 4.6 mph - N/A   Clear
3:35 AM 53.6 °F 33.8 °F 47% 30.04 in 10.0 mi East 3.5 mph - N/A   Clear
3:55 AM 51.8 °F 32.0 °F 47% 30.04 in 10.0 mi East 4.6 mph - N/A   Clear
4:15 AM 51.8 °F 32.0 °F 47% 30.04 in 10.0 mi East 3.5 mph - N/A   Clear
4:35 AM 51.8 °F 32.0 °F 47% 30.05 in 10.0 mi East 3.5 mph - N/A   Clear
4:47 AM 53.6 °F 33.8 °F 47% 30.05 in 20.0 mi SE 5.8 mph - N/A   Clear
4:55 AM 51.8 °F 32.0 °F 47% 30.05 in 10.0 mi East 5.8 mph - N/A   Clear
5:15 AM 53.6 °F 33.8 °F 47% 30.05 in 10.0 mi ESE 5.8 mph - N/A   Clear
5:35 AM 53.6 °F 33.8 °F 47% 30.05 in 7.0 mi ESE 5.8 mph - N/A   Clear
5:47 AM 53.6 °F 33.8 °F 47% 30.05 in 20.0 mi ESE 4.6 mph - N/A   Clear
6:47 AM 53.6 °F 33.8 °F 47% 30.07 in 35.0 mi East 6.9 mph - N/A   Clear
7:47 AM 57.2 °F 35.6 °F 44% 30.09 in 35.0 mi ENE 3.5 mph - N/A   Clear
8:47 AM 62.6 °F 35.6 °F 37% 30.10 in 35.0 mi Variable 3.5 mph - N/A   Clear
9:47 AM 66.2 °F 35.6 °F 32% 30.11 in 35.0 mi Calm Calm - N/A   Clear
10:47 AM 73.4 °F 37.4 °F 27% 30.10 in 35.0 mi Calm Calm - N/A   Clear
11:47 AM 78.8 °F 37.4 °F 23% 30.08 in 35.0 mi Calm Calm - N/A   Clear
12:47 PM 82.4 °F 37.4 °F 20% 30.04 in 35.0 mi NW 3.5 mph - N/A   Clear
1:47 PM 86.0 °F 32.0 °F 14% 30.00 in 35.0 mi West 5.8 mph - N/A   Clear
2:50 PM 87.8 °F 32.0 °F 14% 30.00 in 35.0 mi WNW 3.5 mph - N/A   Clear
3:50 PM 87.8 °F 32.0 °F 14% 29.99 in 35.0 mi WNW 4.6 mph - N/A   Clear
4:47 PM 87.8 °F 32.0 °F 14% 29.99 in 45.0 mi WNW 4.6 mph - N/A   Clear
5:48 PM 84.2 °F 35.6 °F 18% 30.00 in 20.0 mi Calm Calm - N/A   Clear
6:47 PM 78.8 °F 37.4 °F 23% 30.02 in 20.0 mi NW 5.8 mph - N/A   Clear
7:47 PM 75.2 °F 37.4 °F 25% 30.03 in 20.0 mi North 4.6 mph - N/A   Clear
7:55 PM 73.4 °F 35.6 °F 25% 30.03 in 10.0 mi North 5.8 mph - N/A   Clear
8:15 PM 73.4 °F 37.4 °F 27% 30.04 in 10.0 mi NNW 5.8 mph - N/A   Clear
8:35 PM 71.6 °F 35.6 °F 27% 30.05 in 10.0 mi North 4.6 mph - N/A   Clear
8:48 PM 73.4 °F 35.6 °F 25% 30.05 in 20.0 mi Variable 4.6 mph - N/A   Clear
8:55 PM 73.4 °F 32.0 °F 22% 30.05 in 3.0 mi NE 8.1 mph - N/A   Haze
9:15 PM 71.6 °F 32.0 °F 23% 30.05 in 10.0 mi NE 5.8 mph - N/A   Clear
9:35 PM 66.2 °F 35.6 °F 32% 30.06 in 10.0 mi SSE 5.8 mph - N/A   Clear
9:47 PM 64.4 °F 35.6 °F 34% 30.06 in 20.0 mi SSE 3.5 mph - N/A   Clear
9:55 PM 62.6 °F 35.6 °F 37% 30.07 in 10.0 mi Calm Calm - N/A   Clear
10:15 PM 66.2 °F 35.6 °F 32% 30.07 in 10.0 mi Calm Calm - N/A   Clear
10:35 PM 64.4 °F 35.6 °F 34% 30.07 in 10.0 mi Calm Calm - N/A   Clear
10:47 PM 64.4 °F 35.6 °F 34% 30.07 in 20.0 mi ESE 3.5 mph - N/A   Clear
10:55 PM 62.6 °F 33.8 °F 34% 30.08 in 10.0 mi Calm Calm - N/A   Clear
11:15 PM 62.6 °F 33.8 °F 34% 30.08 in 10.0 mi Calm Calm - N/A   Clear
11:35 PM 62.6 °F 33.8 °F 34% 30.08 in 10.0 mi Calm Calm - N/A   Clear
11:47 PM 62.6 °F 37.4 °F 39% 30.08 in 20.0 mi Calm Calm - N/A   Clear
11:55 PM 60.8 °F 37.4 °F 42% 30.08 in 10.0 mi Calm Calm - N/A   Clear